Location: Castle Hill Houses
(40.8186°N, 73.8497°W)
Time: 21:28:06
(UTC+00:00)

ATLAS 5 CENTAUR R/B - Pass Details

Date: 26 January 2020
Orbit: 283 x 14333 km, 60.7° (Epoch: 16 February)

Event Time Altitude Azimuth Distance (km) Brightness Sun altitude
Rises 00:16:30 0° 327° (NNW) 3,101 6.0 -25.0°
Reaches altitude 10° 00:18:01 10° 333° (NNW) 2,551 5.4 -25.3°
Maximum altitude 00:23:41 54° 53° (NE) 2,054 4.3 -26.4°
Enters shadow 00:29:56 35° 109° (ESE) 3,993 5.6 -27.6°
Exits shadow 00:44:46 13° 127° (SE) 8,956 7.5 -30.4°
Drops below altitude 10° 00:47:52 10° 129° (SE) 9,865 7.7 -31.0°
Sets 01:02:50 0° 134° (SE) 13,671 8.5 -33.8°
